Regional Weather Roundup
Issued by NWS Newport/Morehead, NC

Current Version | Previous Version | Graphics & Text | Print | Product List | Glossary Off
Versions: 1 2 3 4 5 6 7 8 9 10 11 12 13 14 15 16 17 18 19 20 21 22 23 24 25 26 27 28 29 30 31 32 33 34 35 36 37 38 39 40 41 42 43 44 45 46 47 48 49 50

000
ASUS42 KMHX 010310
RWRMHX
WEATHER ROUNDUP FOR EASTERN NORTH CAROLINA
NATIONAL WEATHER SERVICE NEWPORT/MOREHEAD CITY NC
1100 PM EDT TUE SEP 30 2014

NOTE: "FAIR" INDICATES FEW OR NO CLOUDS BELOW 12,000 FEET
WITH NO SIGNIFICANT WEATHER AND/OR OBSTRUCTIONS TO VISIBILITY

NCZ015>017-031-032-045>047-102-103-010400-
NORTH COAST

CITY           SKY/WX    TMP DP  RH WIND       PRES   REMARKS
EDENTON        CLEAR     63  61  95 CALM      29.91R
ELIZABETH CITY CLEAR     67  65  93 N6        29.90S
KITTY HAWK     CLEAR     68  64  87 N3        29.88S
MANTEO         CLEAR     67  64  90 N6        29.89S

$$

NCZ045>047-081-094-103-104-010400-
CENTRAL COAST

CITY           SKY/WX    TMP DP  RH WIND       PRES   REMARKS
FRISCO         CLEAR     67  66  97 NE6       29.87S
SWANQUARTER      N/A     64 N/A N/A N2        29.85S

$$

NCZ095-097-098-100-101-010400-
SOUTHERN COAST

CITY           SKY/WX    TMP DP  RH WIND       PRES   REMARKS
BEAUFORT       CLEAR     66  64  93 N6        29.88R
CEDAR ISLAND     N/A     70 N/A N/A VRB12     29.91S
JACKSONVILLE   CLEAR     69  64  84 N5        29.89R
NEWPORT        NOT AVBL
PINEY ISLAND   CLEAR     73  64  73 NE8       29.88R
WILMINGTON     CLEAR     67  65  93 CALM      29.89R


$$

NCZ011>013-027>030-043-044-078>080-089-090>093-098-010400-
COASTAL PLAIN

CITY           SKY/WX    TMP DP  RH WIND       PRES   REMARKS
AHOSKIE        CLEAR     60  59  97 CALM      29.92S FOG
CLINTON        CLEAR     65  65  97 CALM      29.91S
ELIZABETHTOWN  CLEAR     66  65  97 CALM      29.91S
GOLDSBORO      CLEAR     66  65  98 CALM      29.90S
GREENVILLE       N/A     63  63 100 CALM      29.94R FOG
HAVELOCK       CLEAR     68  64  87 N5        29.90R
KENANSVILLE    CLEAR     64  63  94 CALM      29.92S
KINSTON        CLEAR     64  63  96 CALM      29.92S
NEW BERN       CLEAR     67  64  90 CALM      29.91R
RICHLANDS      CLEAR     64  61  88 CALM      29.91R
ROANOKE RAPIDS NOT AVBL
ROCKY MOUNT    FOG       61  60  97 CALM      29.92R VSB 1/2
WASHINGTON     CLEAR     63  63  97 CALM      29.91S
WHITEVILLE     CLEAR     65  64  94 CALM      29.90S

$$

AMZ130-135-150-152-154-156-158-170-250-252-270-ANZ085-086-088-633-658-670-010400-
MARINE OBSERVATIONS

STATION/POSITION TIME  TEMP    WIND        PRES    WAVE   SWELL
                       AIR SEA DIR/SP/G            HT/PER HT/PER
                 (UTC) (F)     (DEG/KT/KT) (MB)    (FT/S) (FT/S)
CHESAPEAKE LIGHT 0200   70      40/  9/ 10 1013.2
BUOY 44014       0300   71 72   20/ 12/ 14 1011.2    2/14   2/14
DUCK             0300   71 73   10/ 11/ 12 1011.4
2E DUCK          0200                        N/A     2/13   2/13
OREGON INLET     0300   69 73  360/  7/ 11 1011.7
BUOY 44095       0300      73                N/A     3/ 7
20E OREGON INLET NOT AVBL
HATTERAS CG      0300   71 76   30/  8/ 11 1011.8
DIAMOND BUOY     0300   73     350/ 14/ 16 1010.7    4/ 6   2/ 7
CAPE LOOKOUT     0200   71      10/  9/ 12 1011.2
BEAUFORT LAB     0300   69 75   10/  4/  6 1011.2
30 SE NEW RIVER  0300   75 80   30/ 12/ 14 1010.9    3/ 5   2/ 6
5 SE WRIGHTSVILL 0200   72 76  360/  6/  6   N/A
BUOY 41002       0206   78 81   70/  8/ 10 1008.5    3/ 6   3/ 6
BUOY 41004       0300   77 81   20/  8/  8 1011.7    3/ 6   3/ 6

$$



USA.gov is the U.S. government's official web portal to all federal, state and local government web resources and services.